Location: Campbell Hill
(37.9301°N, 89.5490°W)
Time: 09:46:42
(UTC+00:00)

Cosmos 1674 Rocket - Pass Details

Date: 07 November 2025
Orbit: 595 x 623 km, 82.5° (Epoch: 07 December)

Event Time Altitude Azimuth Distance (km) Brightness Sun altitude
Rises 23:37:42 0° 352° (N) 2,893 6.9 -9.3°
Reaches altitude 10° 23:39:56 10° 352° (N) 1,979 6.1 -9.7°
Maximum altitude 23:44:19 86° 264° (W) 616 3.6 -10.6°
Drops below altitude 10° 23:48:38 10° 176° (S) 1,947 6.2 -11.4°
Sets 23:50:49 0° 175° (S) 2,841 7.1 -11.8°
